Location: Newark
(52.3500°N, 175.9667°E)
Time: 21:08:00
(UTC+00:00)

Transit 4A - Pass Details

Date: 19 April 2021
Orbit: 871 x 974 km, 66.8° (Epoch: 16 May)

Event Time Altitude Azimuth Distance (km) Brightness Sun altitude
Rises 18:12:37 0° 316° (NW) 3,555 10.6 8.6°
Reaches altitude 10° 18:15:29 10° 326° (NNW) 2,594 10.0 9.1°
Maximum altitude 18:20:47 31° 29° (NNE) 1,508 9.6 9.9°
Drops below altitude 10° 18:25:57 10° 91° (E) 2,537 13.2 10.7°
Sets 18:28:43 0° 101° (ESE) 3,465 12.6 11.1°
